,,,PA_Meas_PMT16A,,PR_Meas_QMR101_102,,RH_Meas_QMH101,,SR_Meas_QMS101,,TA_Meas_QMH101,,GenWind,,GenWind,
date,time,status,PA,status,PR,status,RH,status,SR,status,TA,status,DirAvg,status,SpdAvg,
2009-01-24, 00:00:05,VALID,999.799,VALID,0,VALID,92.3184,VALID,0,VALID,23.8591,VALID,141,VALID,0.176953,
2009-01-24, 00:01:05,VALID,999.846,VALID,0,VALID,92.1811,VALID,0,VALID,23.8396,VALID,141,VALID,0,
2009-01-24, 00:02:05,VALID,999.862,VALID,0,VALID,92.204,VALID,0,VALID,23.8201,VALID,141,VALID,0,
2009-01-24, 00:03:05,VALID,999.879,VALID,0,VALID,92.1582,VALID,0,VALID,23.8006,VALID,141,VALID,0,
2009-01-24, 00:04:05,VALID,999.864,VALID,0,VALID,92.1506,VALID,0,VALID,23.7811,VALID,141,VALID,0,
2009-01-24, 00:05:05,VALID,999.848,VALID,0,VALID,92.1887,VALID,0,VALID,23.7616,VALID,141,VALID,0,
2009-01-24, 00:06:05,VALID,999.88,VALID,0,VALID,92.265,VALID,0,VALID,23.742,VALID,141,VALID,0.321094,
2009-01-24, 00:07:05,VALID,999.876,VALID,0,VALID,92.3794,VALID,0,VALID,23.7225,VALID,142,VALID,0.223438,
2009-01-24, 00:08:05,VALID,999.842,VALID,0,VALID,92.4328,VALID,0,VALID,23.7225,VALID,194,VALID,0.250391,
2009-01-24, 00:09:05,VALID,999.859,VALID,0,VALID,92.4252,VALID,0,VALID,23.7225,VALID,194,VALID,0.234766,
2009-01-24, 00:10:05,VALID,999.85,VALID,0,VALID,92.4023,VALID,0,VALID,23.7225,VALID,194,VALID,0,
2009-01-24, 00:11:05,VALID,999.824,VALID,0,VALID,92.41,VALID,0,VALID,23.7225,VALID,194,VALID,0,
2009-01-24, 00:12:05,VALID,999.833,VALID,0,VALID,92.41,VALID,0,VALID,23.742,VALID,261,VALID,0.499609,
2009-01-24, 00:13:05,VALID,999.808,VALID,0,VALID,92.5091,VALID,0,VALID,23.742,VALID,306,VALID,0.61875,
2009-01-24, 00:14:05,VALID,999.779,VALID,0,VALID,92.4405,VALID,0,VALID,23.7207,VALID,306,VALID,0.563672,
2009-01-24, 00:15:05,VALID,999.784,VALID,0,VALID,92.6236,VALID,0,VALID,23.7616,VALID,306,VALID,0.444922,
2009-01-24, 00:16:05,VALID,999.802,VALID,0,VALID,92.6388,VALID,0,VALID,23.742,VALID,297,VALID,0.424219,
2009-01-24, 00:17:05,VALID,999.779,VALID,0,VALID,92.5854,VALID,0,VALID,23.742,VALID,288,VALID,0.215234,
2009-01-24, 00:18:05,VALID,999.757,VALID,0,VALID,92.4786,VALID,0,VALID,23.742,VALID,288,VALID,0,
2009-01-24, 00:19:05,VALID,999.76,VALID,0,VALID,92.5244,VALID,0,VALID,23.7616,VALID,288,VALID,0,
2009-01-24, 00:20:05,VALID,999.727,VALID,0,VALID,92.5473,VALID,0,VALID,23.7616,VALID,288,VALID,0,
2009-01-24, 00:21:05,VALID,999.734,VALID,0,VALID,92.6312,VALID,0,VALID,23.7616,VALID,288,VALID,0,
2009-01-24, 00:22:05,VALID,999.747,VALID,0,VALID,92.7304,VALID,0,VALID,23.742,VALID,288,VALID,0,
2009-01-24, 00:23:05,VALID,999.768,VALID,0,VALID,92.8601,VALID,0,VALID,23.7225,VALID,288,VALID,0,
2009-01-24, 00:24:05,VALID,999.776,VALID,0,VALID,92.9669,VALID,0,VALID,23.6835,VALID,288,VALID,0.399609,
2009-01-24, 00:25:05,VALID,999.836,VALID,0,VALID,93.0737,VALID,0,VALID,23.664,VALID,288,VALID,0.416797,
2009-01-24, 00:26:05,VALID,999.865,VALID,0,VALID,93.2263,VALID,0,VALID,23.6445,VALID,288,VALID,0.348437,
2009-01-24, 00:27:05,VALID,999.856,VALID,0,VALID,93.4171,VALID,0,VALID,23.625,VALID,288,VALID,0.345313,
2009-01-24, 00:28:05,VALID,999.913,VALID,0,VALID,93.4323,VALID,0,VALID,23.6054,VALID,288,VALID,0.253906,
2009-01-24, 00:29:05,VALID,999.921,VALID,0,VALID,93.4705,VALID,0,VALID,23.6054,VALID,288,VALID,0.448438,
2009-01-24, 00:30:05,VALID,999.899,VALID,0,VALID,93.4705,VALID,0,VALID,23.6054,VALID,353,VALID,0.509766,
2009-01-24, 00:31:05,VALID,999.915,VALID,0,VALID,93.4171,VALID,0,VALID,23.5859,VALID,14,VALID,0.540234,
2009-01-24, 00:32:05,VALID,999.866,VALID,0,VALID,93.3331,VALID,0,VALID,23.6054,VALID,71,VALID,0.769922,
2009-01-24, 00:33:05,VALID,999.866,VALID,0,VALID,93.2187,VALID,0,VALID,23.625,VALID,91,VALID,0.823438,
2009-01-24, 00:34:05,VALID,999.836,VALID,0,VALID,93.2187,VALID,0,VALID,23.664,VALID,96,VALID,0.967578,
2009-01-24, 00:35:05,VALID,999.805,VALID,0,VALID,93.1043,VALID,0,VALID,23.6835,VALID,99,VALID,0.703125,
2009-01-24, 00:36:05,VALID,999.785,VALID,0,VALID,93.0661,VALID,0,VALID,23.6835,VALID,100,VALID,0.698438,
2009-01-24, 00:37:05,VALID,999.762,VALID,0,VALID,93.0661,VALID,0,VALID,23.6622,VALID,101,VALID,0.5125,
2009-01-24, 00:38:05,VALID,999.741,VALID,0,VALID,93.0661,VALID,0,VALID,23.6835,VALID,117,VALID,0.598828,
2009-01-24, 00:39:05,VALID,999.701,VALID,0,VALID,93.0661,VALID,0,VALID,23.6835,VALID,124,VALID,0.7875,
2009-01-24, 00:40:05,VALID,999.675,VALID,0,VALID,93.0737,VALID,0,VALID,23.703,VALID,126,VALID,0.63125,
2009-01-24, 00:41:05,VALID,999.664,VALID,0,VALID,93.0585,VALID,0,VALID,23.703,VALID,128,VALID,0.653125,
2009-01-24, 00:42:05,VALID,999.648,VALID,0,VALID,93.0508,VALID,0,VALID,23.7243,VALID,128,VALID,0.598437,
2009-01-24, 00:43:05,VALID,999.668,VALID,0,VALID,93.0127,VALID,0,VALID,23.7225,VALID,125,VALID,0.861719,
2009-01-24, 00:44:05,VALID,999.654,VALID,0,VALID,92.9822,VALID,0,VALID,23.7225,VALID,124,VALID,0.66875,
2009-01-24, 00:45:05,VALID,999.646,VALID,0,VALID,92.9745,VALID,0,VALID,23.742,VALID,124,VALID,0.573828,
2009-01-24, 00:46:05,VALID,999.646,VALID,0,VALID,92.9745,VALID,0,VALID,23.7225,VALID,112,VALID,0.644141,
2009-01-24, 00:47:05,VALID,999.634,VALID,0,VALID,92.9822,VALID,0,VALID,23.7225,VALID,112,VALID,0.615625,
2009-01-24, 00:48:05,VALID,999.636,VALID,0,VALID,93.1271,VALID,0,VALID,23.742,VALID,112,VALID,0.323047,
2009-01-24, 00:49:05,VALID,999.639,VALID,0,VALID,93.0737,VALID,0,VALID,23.7225,VALID,112,VALID,0,
2009-01-24, 00:50:05,VALID,999.619,VALID,0,VALID,92.9898,VALID,0,VALID,23.7225,VALID,53,VALID,0.551172,
2009-01-24, 00:51:05,VALID,999.593,VALID,0,VALID,92.883,VALID,0,VALID,23.703,VALID,27,VALID,0.788672,
2009-01-24, 00:52:05,VALID,999.549,VALID,0,VALID,93.0814,VALID,0,VALID,23.6835,VALID,16,VALID,0.902734,
2009-01-24, 00:53:05,VALID,999.548,VALID,0,VALID,93.1271,VALID,0,VALID,23.664,VALID,16,VALID,0.659375,
2009-01-24, 00:54:05,VALID,999.53,VALID,0,VALID,93.15,VALID,0,VALID,23.664,VALID,16,VALID,0.0476562,
2009-01-24, 00:55:05,VALID,999.504,VALID,0,VALID,93.1653,VALID,0,VALID,23.6658,VALID,16,VALID,0.429688,
2009-01-24, 00:56:05,VALID,999.506,VALID,0,VALID,93.1348,VALID,0,VALID,23.6445,VALID,16,VALID,0.484375,
2009-01-24, 00:57:05,VALID,999.493,VALID,0,VALID,93.089,VALID,0,VALID,23.6445,VALID,16,VALID,0.529688,
2009-01-24, 00:58:05,VALID,999.504,VALID,0,VALID,93.2111,VALID,0,VALID,23.6658,VALID,31,VALID,0.762891,
2009-01-24, 00:59:05,VALID,999.52,VALID,0,VALID,93.1729,VALID,0,VALID,23.664,VALID,31,VALID,0.854297,
2009-01-24, 01:00:05,VALID,999.509,VALID,0,VALID,93.295,VALID,0,VALID,23.6445,VALID,31,VALID,1.10078,
2009-01-24, 01:01:05,VALID,999.515,VALID,0,VALID,93.3408,VALID,0,VALID,23.6054,VALID,32,VALID,0.991016,
2009-01-24, 01:02:05,VALID,999.519,VALID,0,VALID,93.4857,VALID,0,VALID,23.5859,VALID,32,VALID,0.8375,
2009-01-24, 01:03:05,VALID,999.507,VALID,0,VALID,93.7223,VALID,0,VALID,23.5664,VALID,40,VALID,0.710547,
2009-01-24, 01:04:05,VALID,999.5,VALID,0,VALID,93.8062,VALID,0,VALID,23.5469,VALID,40,VALID,0.415234,
2009-01-24, 01:05:05,VALID,999.519,VALID,0,VALID,93.8672,VALID,0,VALID,23.5469,VALID,40,VALID,0.255469,
2009-01-24, 01:06:05,VALID,999.506,VALID,0,VALID,93.9206,VALID,0,VALID,23.5274,VALID,40,VALID,0.108203,
2009-01-24, 01:07:05,VALID,999.475,VALID,0,VALID,93.9435,VALID,0,VALID,23.5274,VALID,40,VALID,0,
2009-01-24, 01:08:05,VALID,999.486,VALID,0,VALID,93.9817,VALID,0,VALID,23.5079,VALID,40,VALID,0.00429688,
2009-01-24, 01:09:05,VALID,999.49,VALID,0,VALID,94.0961,VALID,0,VALID,23.5079,VALID,40,VALID,0,
2009-01-24, 01:10:05,VALID,999.472,VALID,0,VALID,94.1877,VALID,0,VALID,23.5079,VALID,40,VALID,0,
2009-01-24, 01:11:05,VALID,999.493,VALID,0,VALID,94.3097,VALID,0,VALID,23.5292,VALID,40,VALID,0,
2009-01-24, 01:12:05,VALID,999.502,VALID,0,VALID,94.3403,VALID,0,VALID,23.5079,VALID,40,VALID,0,
2009-01-24, 01:13:05,VALID,999.537,VALID,0,VALID,94.3097,VALID,0,VALID,23.5079,VALID,40,VALID,0,
2009-01-24, 01:14:05,VALID,999.521,VALID,0,VALID,94.3097,VALID,0,VALID,23.5079,VALID,40,VALID,0,
2009-01-24, 01:15:05,VALID,999.533,VALID,0,VALID,94.3021,VALID,0,VALID,23.4884,VALID,40,VALID,0,
2009-01-24, 01:16:05,VALID,999.507,VALID,0,VALID,94.4089,VALID,0.112286,VALID,23.4884,VALID,40,VALID,0,
2009-01-24, 01:17:05,VALID,999.498,VALID,0,VALID,94.47,VALID,0,VALID,23.4884,VALID,40,VALID,0,
2009-01-24, 01:18:05,VALID,999.443,VALID,0,VALID,94.5157,VALID,0,VALID,23.5079,VALID,40,VALID,0,
2009-01-24, 01:19:05,VALID,999.499,VALID,0,VALID,94.4547,VALID,0,VALID,23.5079,VALID,40,VALID,0,
2009-01-24, 01:20:05,VALID,999.467,VALID,0,VALID,94.4547,VALID,0,VALID,23.5061,VALID,337,VALID,0.514063,
2009-01-24, 01:21:05,VALID,999.481,VALID,0,VALID,94.4394,VALID,0,VALID,23.5274,VALID,291,VALID,0.304688,
2009-01-24, 01:22:05,VALID,999.489,VALID,0,VALID,94.3174,VALID,0,VALID,23.5274,VALID,174,VALID,0.371484,
2009-01-24, 01:23:05,VALID,999.512,VALID,0,VALID,94.3174,VALID,0,VALID,23.5274,VALID,162,VALID,0.519531,
2009-01-24, 01:24:05,VALID,999.497,VALID,0,VALID,94.18,VALID,0,VALID,23.5469,VALID,143,VALID,0.473437,
2009-01-24, 01:25:05,VALID,999.468,VALID,0,VALID,93.974,VALID,0,VALID,23.5859,VALID,148,VALID,0.28125,
2009-01-24, 01:26:05,VALID,999.469,VALID,0,VALID,93.6841,VALID,0,VALID,23.6054,VALID,200,VALID,0.231641,
2009-01-24, 01:27:05,VALID,999.421,VALID,0,VALID,93.4781,VALID,0,VALID,23.625,VALID,198,VALID,0.01875,
2009-01-24, 01:28:05,VALID,999.413,VALID,0,VALID,93.4628,VALID,0,VALID,23.6036,VALID,198,VALID,0,
2009-01-24, 01:29:05,VALID,999.412,VALID,0,VALID,93.5086,VALID,0,VALID,23.6445,VALID,198,VALID,0.0667969,
2009-01-24, 01:30:05,VALID,999.403,VALID,0,VALID,93.5544,VALID,0,VALID,23.625,VALID,198,VALID,0.00117188,
2009-01-24, 01:31:05,VALID,999.416,VALID,0,VALID,93.44,VALID,0,VALID,23.625,VALID,198,VALID,0.158984,
2009-01-24, 01:32:05,VALID,999.373,VALID,0,VALID,93.2492,VALID,0,VALID,23.6054,VALID,198,VALID,0.177734,
2009-01-24, 01:33:05,VALID,999.341,VALID,0,VALID,93.15,VALID,0,VALID,23.6054,VALID,198,VALID,0.455078,
2009-01-24, 01:34:05,VALID,999.291,VALID,0,VALID,92.944,VALID,0,VALID,23.625,VALID,172,VALID,0.653906,
2009-01-24, 01:35:05,VALID,999.301,VALID,0,VALID,92.6465,VALID,0,VALID,23.6445,VALID,184,VALID,0.931641,
2009-01-24, 01:36:05,VALID,999.259,VALID,0,VALID,92.1048,VALID,0,VALID,23.703,VALID,186,VALID,1.23125,
2009-01-24, 01:37:05,VALID,999.229,VALID,0,VALID,91.5249,VALID,0,VALID,23.742,VALID,185,VALID,1.04727,
2009-01-24, 01:38:05,VALID,999.243,VALID,0,VALID,91.4486,VALID,0,VALID,23.8201,VALID,172,VALID,0.74375,
2009-01-24, 01:39:05,VALID,999.275,VALID,0,VALID,91.2503,VALID,0,VALID,23.8201,VALID,143,VALID,0.962109,
2009-01-24, 01:40:05,VALID,999.313,VALID,0,VALID,91.0671,VALID,0,VALID,23.8591,VALID,146,VALID,0.535547,
2009-01-24, 01:41:05,VALID,999.315,VALID,0,VALID,91.1206,VALID,0,VALID,23.8786,VALID,146,VALID,0.557422,
2009-01-24, 01:42:05,VALID,999.293,VALID,0,VALID,91.0977,VALID,0,VALID,23.8786,VALID,146,VALID,0.637891,
2009-01-24, 01:43:05,VALID,999.263,VALID,0,VALID,91.0671,VALID,0.112286,VALID,23.8786,VALID,138,VALID,0.682422,
2009-01-24, 01:44:04,VALID,999.246,VALID,0,VALID,91.09,VALID,0.112286,VALID,23.8591,VALID,132,VALID,0.814453,
2009-01-24, 01:45:04,VALID,999.235,VALID,0,VALID,91.1129,VALID,0,VALID,23.7988,VALID,127,VALID,0.903125,
2009-01-24, 01:46:04,VALID,999.202,VALID,0,VALID,91.3037,VALID,0,VALID,23.8006,VALID,120,VALID,0.794922,
2009-01-24, 01:47:04,VALID,999.19,VALID,0,VALID,91.5783,VALID,0,VALID,23.7616,VALID,120,VALID,0.820703,
2009-01-24, 01:48:04,VALID,999.143,VALID,0,VALID,91.8606,VALID,0,VALID,23.7012,VALID,120,VALID,0.654688,
2009-01-24, 01:49:04,VALID,999.129,VALID,0,VALID,92.0895,VALID,0,VALID,23.703,VALID,132,VALID,0.43125,
2009-01-24, 01:50:04,VALID,999.15,VALID,0,VALID,92.2421,VALID,0,VALID,23.6658,VALID,139,VALID,0.307813,
2009-01-24, 01:51:04,VALID,999.072,VALID,0,VALID,92.4023,VALID,0,VALID,23.6463,VALID,146,VALID,0.273438,
2009-01-24, 01:52:04,VALID,999.069,VALID,0,VALID,92.4863,VALID,0,VALID,23.6267,VALID,149,VALID,0,
2009-01-24, 01:53:04,VALID,999.078,VALID,0,VALID,92.6846,VALID,0,VALID,23.5859,VALID,248,VALID,0.188672,
2009-01-24, 01:54:04,VALID,999.041,VALID,0,VALID,92.7075,VALID,0,VALID,23.6072,VALID,275,VALID,0.387891,
2009-01-24, 01:55:04,VALID,999.003,VALID,0,VALID,92.6923,VALID,0,VALID,23.6072,VALID,275,VALID,0.301562,
2009-01-24, 01:56:04,VALID,998.962,VALID,0,VALID,92.7075,VALID,0,VALID,23.5877,VALID,275,VALID,0.122266,
2009-01-24, 01:57:04,VALID,998.979,VALID,0,VALID,92.6846,VALID,0,VALID,23.5877,VALID,275,VALID,0,
2009-01-24, 01:58:04,VALID,999.028,VALID,0,VALID,92.6617,VALID,0,VALID,23.5682,VALID,275,VALID,0,
2009-01-24, 01:59:04,VALID,999.008,VALID,0,VALID,92.8448,VALID,0,VALID,23.5487,VALID,341,VALID,0.508984,
2009-01-24, 02:00:04,VALID,999.018,VALID,0,VALID,92.9517,VALID,0,VALID,23.5682,VALID,341,VALID,0.458984,
2009-01-24, 02:01:04,VALID,999.058,VALID,0,VALID,92.9822,VALID,0,VALID,23.5682,VALID,341,VALID,0.439063,
2009-01-24, 02:02:04,VALID,999.067,VALID,0,VALID,93.0051,VALID,0,VALID,23.5292,VALID,341,VALID,0.281641,
2009-01-24, 02:03:04,VALID,999.064,VALID,0,VALID,92.9974,VALID,0,VALID,23.5292,VALID,341,VALID,0.232422,
2009-01-24, 02:04:04,VALID,999.088,VALID,0,VALID,92.9135,VALID,0,VALID,23.5274,VALID,341,VALID,0.257422,
2009-01-24, 02:05:04,VALID,999.094,VALID,0,VALID,92.822,VALID,0,VALID,23.5469,VALID,341,VALID,0.2375,
2009-01-24, 02:06:04,VALID,999.125,VALID,0,VALID,92.822,VALID,0,VALID,23.5451,VALID,341,VALID,0.300391,
2009-01-24, 02:07:04,VALID,999.101,VALID,0,VALID,92.7838,VALID,0,VALID,23.5664,VALID,341,VALID,0.352344,
2009-01-24, 02:08:04,VALID,999.099,VALID,0,VALID,92.7228,VALID,0,VALID,23.5646,VALID,341,VALID,0.393359,
2009-01-24, 02:09:04,VALID,999.088,VALID,0,VALID,92.7228,VALID,0,VALID,23.5859,VALID,341,VALID,0.229297,
2009-01-24, 02:10:04,VALID,999.079,VALID,0,VALID,92.7228,VALID,0,VALID,23.5859,VALID,341,VALID,0.182422,
2009-01-24, 02:11:04,VALID,999.093,VALID,0,VALID,92.8372,VALID,0,VALID,23.6054,VALID,341,VALID,0.164453,
2009-01-24, 02:12:04,VALID,999.108,VALID,0,VALID,92.8754,VALID,0,VALID,23.5859,VALID,341,VALID,0.0941406,
2009-01-24, 02:13:04,VALID,999.073,VALID,0,VALID,92.8296,VALID,0,VALID,23.5859,VALID,341,VALID,0.123047,
2009-01-24, 02:14:04,VALID,999.079,VALID,0,VALID,92.8906,VALID,0,VALID,23.5664,VALID,341,VALID,0,
2009-01-24, 02:15:04,VALID,999.054,VALID,0,VALID,92.8906,VALID,0,VALID,23.5664,VALID,341,VALID,0,
2009-01-24, 02:16:04,VALID,999.018,VALID,0,VALID,93.028,VALID,0,VALID,23.5469,VALID,341,VALID,0,
2009-01-24, 02:17:04,VALID,999.032,VALID,0,VALID,93.1882,VALID,0,VALID,23.5469,VALID,341,VALID,0,
2009-01-24, 02:18:04,VALID,998.98,VALID,0,VALID,93.2645,VALID,0,VALID,23.5469,VALID,341,VALID,0,
2009-01-24, 02:19:04,VALID,998.987,VALID,0,VALID,93.295,VALID,0,VALID,23.5469,VALID,341,VALID,0,
2009-01-24, 02:20:04,VALID,998.939,VALID,0,VALID,93.3408,VALID,0,VALID,23.5292,VALID,341,VALID,0,
2009-01-24, 02:21:04,VALID,998.9,VALID,0,VALID,93.356,VALID,0,VALID,23.5292,VALID,341,VALID,0,
2009-01-24, 02:22:04,VALID,998.851,VALID,0,VALID,93.3103,VALID,0,VALID,23.5292,VALID,341,VALID,0,
2009-01-24, 02:23:04,VALID,998.832,VALID,0,VALID,93.3026,VALID,0,VALID,23.5292,VALID,341,VALID,0,
2009-01-24, 02:24:04,VALID,998.839,VALID,0,VALID,93.3103,VALID,0,VALID,23.5292,VALID,341,VALID,0,
2009-01-24, 02:25:04,VALID,998.863,VALID,0,VALID,93.4323,VALID,0,VALID,23.5292,VALID,340,VALID,0,
2009-01-24, 02:26:04,VALID,998.858,VALID,0,VALID,93.4934,VALID,0,VALID,23.5292,VALID,341,VALID,0,
2009-01-24, 02:27:04,VALID,998.848,VALID,0,VALID,93.4628,VALID,0,VALID,23.5292,VALID,341,VALID,0.188672,
2009-01-24, 02:28:04,VALID,998.838,VALID,0,VALID,93.4094,VALID,0,VALID,23.57,VALID,341,VALID,0.258984,
2009-01-24, 02:29:04,VALID,998.825,VALID,0,VALID,93.2645,VALID,0,VALID,23.5487,VALID,215,VALID,0.535937,
2009-01-24, 02:30:04,VALID,998.812,VALID,0,VALID,92.8296,VALID,0,VALID,23.5682,VALID,198,VALID,0.592188,
2009-01-24, 02:31:04,VALID,998.795,VALID,0,VALID,92.4786,VALID,0,VALID,23.6463,VALID,214,VALID,0.75,
2009-01-24, 02:32:04,VALID,998.779,VALID,0,VALID,92.0666,VALID,0,VALID,23.6853,VALID,202,VALID,0.533203,
2009-01-24, 02:33:04,VALID,998.756,VALID,0,VALID,91.7385,VALID,0,VALID,23.7243,VALID,216,VALID,0.439063,
2009-01-24, 02:34:04,VALID,998.72,VALID,0,VALID,91.9369,VALID,0,VALID,23.742,VALID,231,VALID,0.828125,
2009-01-24, 02:35:04,VALID,998.743,VALID,0,VALID,92.0666,VALID,0,VALID,23.7616,VALID,234,VALID,0.479297,
2009-01-24, 02:36:04,VALID,998.764,VALID,0,VALID,91.9522,VALID,0,VALID,23.7012,VALID,233,VALID,0.421484,
2009-01-24, 02:37:04,VALID,998.788,VALID,0,VALID,92.0895,VALID,0,VALID,23.7225,VALID,223,VALID,0.44375,
2009-01-24, 02:38:04,VALID,998.798,VALID,0,VALID,91.9522,VALID,0,VALID,23.703,VALID,177,VALID,0.671484,
2009-01-24, 02:39:04,VALID,998.843,VALID,0,VALID,92.1429,VALID,0,VALID,23.703,VALID,164,VALID,0.942187,
2009-01-24, 02:40:04,VALID,998.862,VALID,0,VALID,92.265,VALID,0,VALID,23.7225,VALID,164,VALID,0.598828,
2009-01-24, 02:41:04,VALID,998.872,VALID,0,VALID,92.3718,VALID,0.112286,VALID,23.7225,VALID,157,VALID,0.990234,
2009-01-24, 02:42:04,VALID,998.909,VALID,0,VALID,92.4252,VALID,0,VALID,23.703,VALID,155,VALID,1.02852,
2009-01-24, 02:43:04,VALID,998.91,VALID,0,VALID,92.4405,VALID,0,VALID,23.7243,VALID,153,VALID,0.517187,
2009-01-24, 02:44:04,VALID,998.931,VALID,0,VALID,92.5091,VALID,0,VALID,23.703,VALID,153,VALID,0.763281,
2009-01-24, 02:45:04,VALID,998.956,VALID,0,VALID,92.41,VALID,0,VALID,23.664,VALID,159,VALID,0.964453,
2009-01-24, 02:46:04,VALID,998.977,VALID,0,VALID,92.5091,VALID,0,VALID,23.625,VALID,151,VALID,0.929688,
2009-01-24, 02:47:04,VALID,999.011,VALID,0,VALID,92.6236,VALID,0,VALID,23.6054,VALID,148,VALID,0.465234,
2009-01-24, 02:48:04,VALID,999.011,VALID,0,VALID,92.5626,VALID,0,VALID,23.6072,VALID,138,VALID,0.547656,
2009-01-24, 02:49:04,VALID,999.019,VALID,0,VALID,92.6083,VALID,0,VALID,23.5664,VALID,139,VALID,0.390625,
2009-01-24, 02:50:04,VALID,999.016,VALID,0,VALID,92.738,VALID,0,VALID,23.5469,VALID,139,VALID,0.351953,
2009-01-24, 02:51:04,VALID,998.974,VALID,0,VALID,92.8143,VALID,0.112286,VALID,23.5274,VALID,139,VALID,0.126953,
2009-01-24, 02:52:04,VALID,998.96,VALID,0,VALID,92.8754,VALID,0,VALID,23.5079,VALID,139,VALID,0,
2009-01-24, 02:53:04,VALID,998.947,VALID,0,VALID,93.0508,VALID,0.112286,VALID,23.4884,VALID,139,VALID,0,
2009-01-24, 02:54:04,VALID,998.96,VALID,0,VALID,93.1729,VALID,0,VALID,23.4688,VALID,139,VALID,0,
2009-01-24, 02:55:04,VALID,998.95,VALID,0,VALID,93.1729,VALID,0,VALID,23.4493,VALID,139,VALID,0.109766,
2009-01-24, 02:56:04,VALID,998.941,VALID,0,VALID,93.2263,VALID,0,VALID,23.4688,VALID,139,VALID,0,
2009-01-24, 02:57:04,VALID,998.944,VALID,0,VALID,93.356,VALID,0,VALID,23.4688,VALID,139,VALID,0,
2009-01-24, 02:58:04,VALID,998.939,VALID,0,VALID,93.295,VALID,0,VALID,23.4688,VALID,139,VALID,0,
2009-01-24, 02:59:04,VALID,998.914,VALID,0,VALID,93.2568,VALID,0,VALID,23.4688,VALID,139,VALID,0,
2009-01-24, 03:00:04,VALID,998.902,VALID,0,VALID,93.2874,VALID,0,VALID,23.4688,VALID,139,VALID,0,
2009-01-24, 03:01:04,VALID,998.895,VALID,0,VALID,93.295,VALID,0,VALID,23.4688,VALID,139,VALID,0,
2009-01-24, 03:02:04,VALID,998.886,VALID,0,VALID,93.2187,VALID,0,VALID,23.4493,VALID,139,VALID,0,
2009-01-24, 03:03:04,VALID,998.897,VALID,0,VALID,93.1348,VALID,0,VALID,23.4688,VALID,139,VALID,0,
2009-01-24, 03:04:04,VALID,998.869,VALID,0,VALID,93.0508,VALID,0,VALID,23.4688,VALID,139,VALID,0,
2009-01-24, 03:05:04,VALID,998.888,VALID,0,VALID,92.9593,VALID,0.112286,VALID,23.4884,VALID,139,VALID,0,
2009-01-24, 03:06:04,VALID,998.863,VALID,0,VALID,92.7914,VALID,0,VALID,23.4884,VALID,139,VALID,0,
2009-01-24, 03:07:04,VALID,998.894,VALID,0,VALID,92.7457,VALID,0,VALID,23.5079,VALID,139,VALID,0,
2009-01-24, 03:08:04,VALID,998.951,VALID,0,VALID,92.6541,VALID,0,VALID,23.5079,VALID,139,VALID,0,
2009-01-24, 03:09:04,VALID,998.991,VALID,0,VALID,92.6541,VALID,0,VALID,23.5079,VALID,139,VALID,0,
2009-01-24, 03:10:04,VALID,999.007,VALID,0,VALID,92.1658,VALID,0,VALID,23.5274,VALID,129,VALID,0.623047,
2009-01-24, 03:11:04,VALID,999.026,VALID,0,VALID,91.7843,VALID,0,VALID,23.5664,VALID,175,VALID,0.349609,
2009-01-24, 03:12:04,VALID,999.027,VALID,0,VALID,91.4868,VALID,0,VALID,23.625,VALID,175,VALID,0.405469,
2009-01-24, 03:13:04,VALID,999.035,VALID,0,VALID,91.4486,VALID,0,VALID,23.703,VALID,175,VALID,0.15,
2009-01-24, 03:14:04,VALID,999.045,VALID,0,VALID,91.7843,VALID,0,VALID,23.7225,VALID,175,VALID,0.180078,
2009-01-24, 03:15:04,VALID,999.007,VALID,0,VALID,92.0056,VALID,0,VALID,23.703,VALID,175,VALID,0,
2009-01-24, 03:16:04,VALID,999.023,VALID,0,VALID,92.059,VALID,0,VALID,23.6835,VALID,175,VALID,0,
2009-01-24, 03:17:04,VALID,999.062,VALID,0,VALID,92.1429,VALID,0,VALID,23.6835,VALID,175,VALID,0,
2009-01-24, 03:18:04,VALID,999.073,VALID,0,VALID,92.1811,VALID,0,VALID,23.664,VALID,175,VALID,0,
2009-01-24, 03:19:04,VALID,999.078,VALID,0,VALID,92.2345,VALID,0,VALID,23.6445,VALID,175,VALID,0,
2009-01-24, 03:20:04,VALID,999.08,VALID,0,VALID,92.326,VALID,0,VALID,23.6267,VALID,175,VALID,0,
2009-01-24, 03:21:04,VALID,999.074,VALID,0,VALID,92.5015,VALID,0,VALID,23.6072,VALID,175,VALID,0,
2009-01-24, 03:22:04,VALID,999.083,VALID,0,VALID,92.6007,VALID,0,VALID,23.5877,VALID,175,VALID,0,
2009-01-24, 03:23:04,VALID,999.072,VALID,0,VALID,92.5778,VALID,0,VALID,23.5682,VALID,175,VALID,0.171484,
2009-01-24, 03:24:04,VALID,999.078,VALID,0,VALID,92.6846,VALID,0,VALID,23.5682,VALID,173,VALID,0.365625,
2009-01-24, 03:25:04,VALID,999.084,VALID,0,VALID,92.7762,VALID,0,VALID,23.5877,VALID,173,VALID,0.384375,
2009-01-24, 03:26:04,VALID,999.076,VALID,0,VALID,92.7228,VALID,0,VALID,23.5859,VALID,171,VALID,0.485938,
2009-01-24, 03:27:04,VALID,999.106,VALID,0,VALID,92.4481,VALID,0,VALID,23.6267,VALID,171,VALID,0.419531,
2009-01-24, 03:28:04,VALID,999.059,VALID,0,VALID,92.41,VALID,0,VALID,23.6463,VALID,171,VALID,0.404297,
2009-01-24, 03:29:04,VALID,999.056,VALID,0,VALID,92.265,VALID,0,VALID,23.6445,VALID,171,VALID,0.269922,
2009-01-24, 03:30:04,VALID,999.088,VALID,0,VALID,92.2955,VALID,0,VALID,23.6658,VALID,171,VALID,0.199219,
2009-01-24, 03:31:04,VALID,999.051,VALID,0,VALID,92.326,VALID,0,VALID,23.664,VALID,171,VALID,0.100781,
2009-01-24, 03:32:04,VALID,999.066,VALID,0,VALID,92.3031,VALID,0,VALID,23.6853,VALID,171,VALID,0,
2009-01-24, 03:33:04,VALID,999.053,VALID,0,VALID,92.3337,VALID,0,VALID,23.7048,VALID,178,VALID,0.00078125,
2009-01-24, 03:34:04,VALID,999.057,VALID,0,VALID,92.4634,VALID,0,VALID,23.6853,VALID,237,VALID,0.331641,
2009-01-24, 03:35:04,VALID,999.053,VALID,0,VALID,92.532,VALID,0.112286,VALID,23.664,VALID,284,VALID,0.483984,
2009-01-24, 03:36:04,VALID,999.054,VALID,0,VALID,92.5778,VALID,0,VALID,23.6445,VALID,284,VALID,0.264062,
2009-01-24, 03:37:04,VALID,999.054,VALID,0,VALID,92.6617,VALID,0,VALID,23.625,VALID,284,VALID,0,
2009-01-24, 03:38:04,VALID,999.083,VALID,0,VALID,92.7685,VALID,0,VALID,23.6054,VALID,284,VALID,0,
2009-01-24, 03:39:04,VALID,999.076,VALID,0,VALID,92.883,VALID,0,VALID,23.5859,VALID,284,VALID,0,
2009-01-24, 03:40:04,VALID,999.078,VALID,0,VALID,92.9745,VALID,0,VALID,23.5451,VALID,284,VALID,0,
2009-01-24, 03:41:04,VALID,999.073,VALID,0,VALID,93.0508,VALID,0,VALID,23.5664,VALID,284,VALID,0,
2009-01-24, 03:42:04,VALID,999.102,VALID,0,VALID,92.9974,VALID,0,VALID,23.5469,VALID,269,VALID,0.119141,
2009-01-24, 03:43:04,VALID,999.134,VALID,0,VALID,93.0127,VALID,0,VALID,23.5859,VALID,256,VALID,0.158984,
2009-01-24, 03:44:04,VALID,999.122,VALID,0,VALID,93.089,VALID,0,VALID,23.5859,VALID,256,VALID,0,
2009-01-24, 03:45:04,VALID,999.099,VALID,0,VALID,93.028,VALID,0.112286,VALID,23.6054,VALID,256,VALID,0,
2009-01-24, 03:46:04,VALID,999.097,VALID,0,VALID,93.1577,VALID,0.112286,VALID,23.5646,VALID,256,VALID,0,
2009-01-24, 03:47:04,VALID,999.065,VALID,0,VALID,93.1729,VALID,0,VALID,23.5664,VALID,256,VALID,0.210156,
2009-01-24, 03:48:04,VALID,999.086,VALID,0,VALID,93.3026,VALID,0,VALID,23.5274,VALID,256,VALID,0.314844,
2009-01-24, 03:49:04,VALID,999.044,VALID,0,VALID,93.4552,VALID,0.112286,VALID,23.5061,VALID,256,VALID,0.168359,